Vilanova de Sau





Hora UTC 20:40
Temperatura 4.8 ºC
Humitat 87.0 %
Pressió 1001.3 hPa
Pluja 0.0 mm
Velocitat vent 0.0 km/h
Direcció vent NNE
Radiació solar 0.0 W/m²
Fuel 159.9 %

Dades diàries 2019-11-15



Hora UTC (hivern +1h; estiu +2h)
Temperatura (ºC) Humitat (%) Pressió (hPa) Velocitat vent (km/h) Precipitació (mm) Fuel (%) Radiació solar (W/m²)
Hora UTC Aire Humitat Pressió Vel. Dir. Vel. Max Dir. Intent. màx 5 min. Fuel Rad. Sol.
00:05 1.6 98.2 997.3 0.0 NNE 0.0 SW 0.0 305.1 0.0
00:10 1.6 98.2 997.3 0.0 NNE 0.0 SSW 0.0 305.3 0.0
00:15 1.4 98.0 997.3 0.0 NNE 0.0 SSW 0.0 305.5 0.0
00:20 1.4 98.2 997.4 0.0 NNE 0.0 SSW 0.0 305.7 0.0
00:25 1.4 98.2 997.5 0.0 NNE 0.0 WSW 0.0 305.9 0.0
00:30 1.4 98.3 997.5 0.0 NNE 0.0 W 0.0 306.0 0.0
00:35 1.3 98.1 997.5 0.0 NNE 0.0 E 0.0 306.2 0.0
00:40 1.2 98.1 997.5 0.0 NNE 0.0 E 0.0 306.4 0.0
00:45 1.2 98.3 997.5 0.0 NNE 0.0 SW 0.0 306.8 0.0
00:50 1.1 98.3 997.6 0.0 NNE 0.0 SW 0.0 307.0 0.0
00:55 1.0 98.3 997.6 0.0 NNE 0.0 SW 0.0 307.2 0.0
01:00 0.9 98.4 997.5 0.0 NNE 0.0 SW 0.0 307.6 0.0
01:05 1.0 98.6 997.5 0.0 NNE 0.0 WSW 0.0 308.0 0.0
01:10 1.0 98.4 997.5 0.0 NNE 0.0 WSW 0.0 308.4 0.0
01:15 0.9 98.5 997.6 0.0 NNE 0.0 SW 0.0 308.7 0.0
01:20 0.9 98.6 997.6 0.0 NNE 0.0 SW 0.0 309.0 0.0
01:25 0.9 98.7 997.6 0.0 NNE 0.0 SW 0.0 309.3 0.0
01:30 0.9 98.8 997.6 0.0 NNE 0.0 SW 0.0 309.7 0.0
01:35 0.8 98.8 997.6 0.0 NNE 0.0 SW 0.0 309.9 0.0
01:40 0.8 98.8 997.7 0.0 NNE 0.0 SW 0.0 310.2 0.0
01:45 0.8 98.8 997.8 0.0 NNE 0.0 SW 0.0 310.5 0.0
01:50 1.0 99.1 997.8 0.0 NNE 0.0 WSW 0.0 310.9 0.0
01:55 1.2 99.1 997.8 0.0 NNE 0.0 W 0.0 311.3 0.0
02:00 1.1 98.8 997.8 0.0 NNE 0.0 SW 0.0 311.5 0.0
02:05 1.0 98.8 997.9 0.0 NNE 0.0 SW 0.0 311.6 0.0
02:10 0.9 98.8 997.8 0.0 NNE 0.0 SW 0.0 311.9 0.0
02:15 0.9 99.0 997.7 0.0 NNE 0.0 W 0.0 312.2 0.0
02:20 0.8 98.7 997.8 0.0 NNE 0.0 SW 0.0 312.5 0.0
02:25 0.7 98.8 997.8 0.0 NNE 0.0 SW 0.0 312.7 0.0
02:30 0.6 98.9 997.8 0.0 NNE 0.0 SW 0.0 313.0 0.0
02:35 0.6 99.0 997.7 0.0 NNE 0.0 SW 0.0 313.3 0.0
02:40 0.6 98.9 997.7 0.0 NNE 0.0 SW 0.0 313.6 0.0
02:45 0.6 99.0 997.7 0.0 NNE 0.0 SW 0.0 313.9 0.0
02:50 0.5 99.1 997.7 0.0 NNE 0.0 SW 0.0 314.1 0.0
02:55 0.5 99.1 997.8 0.0 NNE 0.0 SW 0.0 314.4 0.0
03:00 0.5 99.1 997.8 0.0 NNE 0.0 SW 0.0 314.6 0.0
03:05 0.5 99.1 997.8 0.0 NNE 0.0 SW 0.0 315.0 0.0
03:10 0.6 99.3 997.8 0.0 NNE 0.0 SW 0.0 315.4 0.0
03:15 0.6 99.3 997.8 0.0 NNE 0.0 SW 0.0 315.6 0.0
03:20 0.6 99.2 997.9 0.0 NNE 0.0 SW 0.0 315.9 0.0
03:25 0.6 99.2 997.9 0.0 NNE 0.0 SSE 0.0 316.1 0.0
03:30 0.6 99.2 997.8 0.0 NNE 0.0 S 0.0 316.4 0.0
03:35 0.6 99.2 997.8 0.0 NNE 0.0 WNW 0.0 316.7 0.0
03:40 0.5 99.1 997.7 0.0 NNE 0.0 W 0.0 316.9 0.0
03:45 0.4 99.1 997.7 0.0 NNE 0.0 W 0.0 317.2 0.0
03:50 0.4 99.2 997.8 0.0 NNE 0.0 WSW 0.0 316.5 0.0
03:55 0.3 99.2 997.9 0.0 NNE 0.0 WSW 0.0 306.2 0.0
04:00 0.4 99.3 997.9 0.0 NNE 0.0 WSW 0.0 301.1 0.0
04:05 0.4 99.3 998.0 0.0 NNE 0.0 WSW 0.0 297.5 0.0
04:10 0.7 99.7 998.0 0.0 NNE 0.0 WSW 0.0 296.1 0.0
04:15 0.9 99.6 997.9 0.0 NNE 0.0 W 0.0 298.5 0.0
04:20 1.0 99.4 997.9 0.0 NNE 0.0 WSW 0.0 300.6 0.0
04:25 0.8 99.1 998.0 0.0 NNE 0.0 E 0.0 300.9 0.0
04:30 0.7 99.0 998.0 0.0 NNE 0.0 ENE 0.0 299.7 0.0
04:35 0.7 99.1 998.0 0.0 NNE 0.0 SE 0.0 299.3 0.0
04:40 0.7 99.2 997.9 0.0 NNE 0.0 SSE 0.0 298.7 0.0
04:45 0.7 99.2 997.9 0.0 NNE 0.0 WSW 0.0 297.7 0.0
04:50 0.6 99.2 997.9 0.0 NNE 0.0 SW 0.0 295.5 0.0
04:55 0.4 99.0 997.9 0.0 NNE 0.0 SW 0.0 290.2 0.0
05:00 0.3 99.1 997.9 0.0 NNE 0.0 SW 0.0 282.7 0.0
05:05 0.1 99.0 997.8 0.0 NNE 0.0 SW 0.0 274.3 0.0
05:10 0.0 99.1 997.8 0.0 NNE 0.0 SW 0.0 265.3 0.0
05:15 -0.1 99.2 997.9 0.0 NNE 0.0 SW 0.0 256.5 0.0
05:20 0.0 99.3 997.9 0.0 NNE 0.0 SW 0.0 248.8 0.0
05:25 0.0 99.4 997.9 0.0 NNE 0.0 SW 0.0 242.6 0.0
05:30 0.0 99.4 998.0 0.0 NNE 0.0 SW 0.0 237.4 0.0
05:35 -0.1 99.4 998.0 0.0 NNE 0.0 SW 0.0 232.8 0.0
05:40 -0.1 99.5 998.1 0.0 NNE 0.0 SW 0.0 228.8 0.0
05:45 -0.1 99.5 998.0 0.0 NNE 0.0 SW 0.0 224.9 0.0
05:50 0.0 99.6 998.1 0.0 NNE 0.0 SW 0.0 221.1 0.0
05:55 0.0 99.6 998.1 0.0 NNE 0.0 SW 0.0 217.8 0.0
06:00 0.0 99.6 998.0 0.0 NNE 0.0 SW 0.0 214.4 0.0
06:05 0.0 99.5 998.0 0.0 NNE 0.0 SW 0.0 210.6 0.0
06:10 0.0 99.6 998.0 0.0 NNE 0.0 SW 0.0 207.2 0.0
06:15 0.0 99.6 998.0 0.0 NNE 0.0 SW 0.0 204.1 0.0
06:20 0.0 99.5 998.2 0.0 NNE 0.0 SW 0.0 201.0 0.0
06:25 -0.1 99.5 998.2 0.0 NNE 0.0 SW 0.0 198.4 0.1
06:30 -0.1 99.5 998.2 0.0 NNE 0.0 SW 0.0 196.3 0.3
06:35 -0.1 99.7 998.2 0.0 NNE 0.0 SW 0.0 195.6 1.0
06:40 -0.1 99.5 998.2 0.0 NNE 0.0 SW 0.0 195.0 2.2
06:45 -0.1 99.5 998.2 0.0 NNE 0.0 SW 0.0 194.6 3.9
06:50 -0.2 99.5 998.2 0.0 NNE 0.0 SW 0.0 194.0 6.2
06:55 -0.3 99.5 998.3 0.0 NNE 0.0 SW 0.0 193.8 8.4
07:00 -0.2 99.6 998.3 0.0 NNE 0.0 SW 0.0 195.0 9.3
07:05 0.0 99.8 998.4 0.0 NNE 0.0 SW 0.0 196.9 10.9
07:10 0.2 99.9 998.5 0.0 NNE 0.0 SW 0.0 199.6 12.0
07:15 0.5 99.9 998.7 0.0 NNE 0.0 SW 0.0 203.7 13.9
07:20 0.6 99.8 998.8 0.0 NNE 0.0 SW 0.0 208.1 16.0
07:25 0.7 99.7 998.9 0.0 NNE 0.0 SW 0.0 212.7 17.6
07:30 0.8 99.6 998.9 0.0 NNE 0.0 SW 0.0 217.7 20.2
07:35 0.8 99.6 999.0 0.0 NNE 0.0 SW 0.0 223.0 22.7
07:40 0.9 99.6 999.2 0.0 NNE 0.0 SW 0.0 228.5 24.0
07:45 1.0 99.7 999.2 0.0 NNE 0.0 SW 0.0 235.2 28.1
07:50 1.1 99.6 999.2 0.0 NNE 0.0 WSW 0.0 243.9 30.5
07:55 1.1 99.6 999.2 0.0 NNE 0.0 SW 0.0 252.2 35.8
08:00 1.3 99.6 999.2 0.0 NNE 0.0 SW 0.0 260.2 40.2
08:05 1.3 99.5 999.3 0.0 NNE 0.0 S 0.0 268.0 42.3
08:10 1.4 99.5 999.3 0.0 NNE 0.0 SE 0.0 275.6 41.5
08:15 1.4 99.4 999.2 0.0 NNE 0.0 S 0.0 283.4 47.1
08:20 1.5 99.3 999.2 0.0 NNE 0.0 SSE 0.0 291.8 73.2
08:25 1.4 99.1 999.2 0.0 NNE 0.0 ESE 0.0 299.7 93.6
08:30 1.4 99.1 999.2 0.0 NNE 0.0 E 0.0 308.4 108.3
08:35 1.5 99.1 999.1 0.0 NNE 0.0 ESE 0.0 315.9 90.0
08:40 1.5 99.0 999.2 0.0 NNE 0.0 S 0.0 320.4 94.1
08:45 1.7 99.0 999.3 0.0 NNE 0.0 SSW 0.0 322.6 77.7
08:50 1.8 99.0 999.2 0.0 NNE 0.0 SSW 0.0 323.4 85.8
08:55 1.8 98.9 999.3 0.0 NNE 0.0 SSW 0.0 323.6 91.9
09:00 1.8 98.9 999.3 0.0 NNE 0.0 ESE 0.0 323.1 88.2
09:05 1.8 98.9 999.3 0.0 NNE 0.0 NNW 0.0 322.3 91.8
09:10 1.8 99.0 999.3 0.0 NNE 0.0 NNE 0.0 321.6 115.5
09:15 1.9 99.0 999.3 0.0 NNE 0.0 NNW 0.0 320.8 125.7
09:20 2.1 99.0 999.3 0.0 NNE 0.0 N 0.0 319.8 126.6
09:25 2.1 99.0 999.3 0.0 NNE 0.0 ENE 0.0 318.7 107.9
09:30 2.1 99.0 999.3 0.0 NNE 0.0 E 0.0 317.7 133.7
09:35 2.2 99.1 999.2 0.0 NNE 0.0 ENE 0.0 316.7 147.0
09:40 2.1 98.8 999.2 0.0 NNE 0.0 E 0.0 315.4 133.4
09:45 2.2 99.1 999.3 0.0 NNE 0.0 E 0.0 314.4 120.5
09:50 2.2 98.9 999.3 0.0 NNE 0.0 ENE 0.0 313.5 125.3
09:55 2.2 98.8 999.4 0.0 NNE 0.0 E 0.0 312.5 137.6
10:00 2.3 98.8 999.4 0.0 NNE 0.0 NE 0.0 311.5 159.1
10:05 2.5 98.9 999.3 0.0 NNE 0.0 ESE 0.0 310.6 162.4
10:10 2.8 99.0 999.3 0.0 NNE 0.0 ESE 0.0 309.5 184.1
10:15 2.7 98.2 999.2 0.0 NNE 0.0 SSE 0.0 308.1 225.9
10:20 2.7 98.3 999.2 0.0 NNE 0.0 WNW 0.0 306.4 210.1
10:25 3.1 98.6 999.2 0.0 NNE 0.0 SW 0.0 305.1 269.7
10:30 3.4 98.3 999.1 0.0 NNE 0.0 WSW 0.0 303.4 229.1
10:35 3.8 98.1 999.0 0.0 NNE 0.0 SW 0.0 301.7 265.5
10:40 3.8 97.8 999.0 0.0 NNE 0.0 E 0.0 299.4 381.3
10:45 4.0 97.8 998.9 0.0 NNE 0.0 NNE 0.0 296.8 387.8
10:50 4.5 97.6 998.9 0.0 NNE 0.0 NNE 0.0 294.3 408.3
10:55 4.4 96.8 998.8 0.0 NNE 0.0 ENE 0.0 291.2 374.9
11:00 4.7 96.9 998.8 0.0 NNE 0.0 NNE 0.0 288.8 361.8
11:05 4.9 96.4 998.7 0.0 NNE 0.0 NE 0.0 286.3 424.9
11:10 5.2 95.7 998.6 0.0 NNE 0.0 NE 0.0 283.9 458.0
11:15 5.5 93.9 998.6 0.0 NNE 0.0 NNE 0.0 281.1 384.9
11:20 5.4 92.3 998.5 0.0 NNE 0.0 ESE 0.0 278.3 363.3
11:25 5.4 91.4 998.4 0.0 NNE 0.0 ENE 0.0 276.1 385.4
11:30 5.5 90.0 998.4 0.0 NNE 0.0 ENE 0.0 273.9 381.1
11:35 5.7 88.9 998.3 0.0 NNE 0.0 ENE 0.0 271.7 344.0
11:40 6.1 88.6 998.3 0.0 NNE 0.0 ENE 0.0 269.9 368.7
11:45 6.5 86.4 998.2 0.0 NNE 0.0 E 0.0 268.1 336.0
11:50 6.7 83.4 998.2 0.0 NNE 0.0 NNE 0.0 265.9 322.2
11:55 6.6 79.1 998.2 0.0 NNE 0.0 W 0.0 263.4 321.6
12:00 6.5 78.9 998.1 2.1 WNW 16.9 WNW 0.0 261.3 326.0
12:05 6.7 79.4 998.0 3.3 WNW 11.5 WNW 0.0 259.5 324.2
12:10 6.8 78.5 998.0 4.0 SW 11.5 WSW 0.0 257.4 394.9
12:15 7.0 77.5 998.0 2.6 W 8.8 NW 0.0 255.4 376.1
12:20 6.9 76.6 998.0 3.8 W 11.5 W 0.0 253.3 343.7
12:25 7.1 76.8 998.0 2.3 W 11.5 NNW 0.0 251.6 390.6
12:30 7.2 73.9 997.9 2.7 NNW 8.8 NW 0.0 249.4 430.6
12:35 7.4 73.4 997.9 1.5 SSW 8.8 SSW 0.0 247.2 475.7
12:40 7.7 73.1 997.8 0.5 E 8.8 ENE 0.0 245.0 523.2
12:45 7.9 69.7 997.8 7.1 SSW 22.3 SSW 0.0 242.3 506.5
12:50 7.9 70.7 997.7 5.5 SW 16.9 WSW 0.0 239.8 438.8
12:55 8.2 70.2 997.7 2.9 SW 11.5 SSW 0.0 237.8 424.5
13:00 8.1 68.0 997.7 4.1 SSW 14.2 SSE 0.0 235.6 408.5
13:05 8.2 67.8 997.7 0.9 SSE 8.8 NNW 0.0 233.7 236.9
13:10 7.7 69.6 997.7 2.5 SE 8.8 ESE 0.0 232.0 164.9
13:15 7.4 71.8 997.6 6.3 S 19.6 SW 0.0 230.8 275.9
13:20 7.2 72.2 997.6 8.0 S 16.9 S 0.0 229.1 465.9
13:25 7.4 70.6 997.5 2.9 S 11.5 SSW 0.0 226.9 446.8
13:30 8.0 69.3 997.5 2.4 S 14.2 SW 0.0 224.8 423.4
13:35 8.0 66.7 997.5 5.2 SW 11.5 SSW 0.0 222.3 395.6
13:40 8.2 66.7 997.4 1.4 WSW 11.5 W 0.0 220.2 386.1
13:45 8.2 67.9 997.3 7.1 W 16.9 NNW 0.0 218.0 370.3
13:50 7.9 67.4 997.3 9.8 W 19.6 WSW 0.0 215.8 355.7
13:55 7.6 67.1 997.4 11.7 WSW 25.0 WSW 0.0 213.6 342.5
14:00 7.7 67.8 997.3 3.1 WSW 11.5 NW 0.0 211.9 328.6
14:05 8.0 67.1 997.4 2.8 SW 11.5 SE 0.0 210.2 316.1
14:10 8.0 65.2 997.4 2.1 SSW 11.5 S 0.0 208.1 303.6
14:15 8.0 67.0 997.4 9.4 SW 19.6 SW 0.0 206.2 293.0
14:20 7.7 67.5 997.2 10.7 SSW 19.6 SSW 0.0 204.4 281.1
14:25 7.7 67.8 997.2 7.5 SSW 16.9 WSW 0.0 202.8 268.2
14:30 7.9 66.6 997.2 1.1 ESE 8.8 SSE 0.0 201.4 257.2
14:35 7.7 66.7 997.3 0.3 NNE 6.1 NNE 0.0 199.6 245.1
14:40 7.6 66.0 997.3 11.4 SSW 30.4 SW 0.0 198.0 205.8
14:45 7.4 66.9 997.4 6.8 SSW 16.9 ESE 0.0 196.4 212.5
14:50 7.4 66.9 997.5 8.1 SSW 25.0 WSW 0.0 195.0 207.7
14:55 7.3 66.1 997.5 12.8 SW 35.8 SW 0.0 193.4 194.0
15:00 7.2 67.6 997.6 12.3 SW 25.0 WSW 0.0 192.0 184.0
15:05 7.2 68.2 997.6 12.1 SW 30.4 SW 0.0 190.7 171.0
15:10 7.0 68.5 997.7 12.2 WSW 27.7 WSW 0.0 189.4 136.9
15:15 6.9 68.5 997.8 12.7 SSW 27.7 SSW 0.0 188.2 111.0
15:20 6.7 69.1 997.8 8.1 SW 22.3 WSW 0.0 187.0 38.0
15:25 6.6 70.7 997.9 4.6 S 16.9 SSW 0.0 186.4 38.2
15:30 6.5 71.3 997.9 7.0 SSW 22.3 S 0.0 185.8 40.4
15:35 6.4 71.5 997.9 8.1 SW 19.6 S 0.0 185.1 43.2
15:40 6.4 72.1 997.9 6.4 SSW 11.5 SSE 0.0 184.5 45.2
15:45 6.5 71.9 997.9 6.5 WSW 14.2 WSW 0.0 183.8 45.4
15:50 6.5 71.0 998.0 6.3 SW 14.2 S 0.0 183.0 43.1
15:55 6.4 72.7 998.0 4.8 SSW 11.5 SSW 0.0 182.4 38.7
16:00 6.3 72.3 998.0 9.7 SSW 27.7 SW 0.0 181.7 34.4
16:05 6.3 71.3 997.9 10.8 SSW 25.0 WSW 0.0 180.8 31.4
16:10 6.3 71.1 998.0 8.8 SSW 19.6 SW 0.0 179.9 27.2
16:15 6.2 71.9 998.1 5.5 SSW 19.6 SSW 0.0 179.2 20.0
16:20 6.1 72.7 998.1 0.9 NNE 8.8 N 0.0 178.5 11.7
16:25 6.0 74.2 998.1 4.8 WNW 16.9 NW 0.0 178.0 6.2
16:30 5.8 76.0 998.2 2.9 SW 22.3 SSW 0.0 177.6 3.3
16:35 5.6 77.5 998.2 3.8 SSW 16.9 SSW 0.0 177.2 1.6
16:40 5.6 77.1 998.3 4.9 SW 14.2 SSW 0.0 176.9 0.5
16:45 5.5 77.0 998.4 3.7 SW 14.2 SW 0.0 176.5 0.1
16:50 5.5 77.3 998.4 6.6 SSW 14.2 SW 0.0 176.1 0.0
16:55 5.5 78.2 998.5 6.6 SSW 16.9 SW 0.0 175.7 0.0
17:00 5.3 78.7 998.6 5.4 SW 14.2 SW 0.0 175.4 0.0
17:05 5.3 78.4 998.7 4.7 WNW 14.2 W 0.0 175.0 0.0
17:10 4.9 80.8 998.8 4.4 NE 8.8 NE 0.0 174.6 0.0
17:15 4.7 82.4 999.0 6.1 NNE 16.9 NNW 0.0 174.4 0.0
17:20 4.8 82.5 999.1 4.7 NNE 11.5 NE 0.0 174.1 0.0
17:25 4.9 82.8 999.3 5.9 NE 14.2 NNE 0.0 173.9 0.0
17:30 5.0 82.5 999.4 3.8 NE 14.2 NNE 0.0 173.4 0.0
17:35 5.0 82.5 999.4 1.7 SSW 8.8 SSW 0.0 172.9 0.0
17:40 5.0 81.8 999.5 4.0 WSW 11.5 WSW 0.0 172.5 0.0
17:45 5.0 81.9 999.5 6.8 NNW 16.9 NW 0.0 172.1 0.0
17:50 5.0 81.9 999.5 0.6 SSW 6.1 WNW 0.0 171.7 0.0
17:55 4.9 82.6 999.5 2.7 ENE 6.1 NE 0.0 171.5 0.0
18:00 4.9 82.8 999.6 1.1 ENE 6.1 NNE 0.0 171.2 0.0
18:05 4.9 83.3 999.7 0.0 NNE 0.0 NNE 0.0 170.8 0.0
18:10 4.8 84.2 999.7 1.3 NW 11.5 NW 0.0 170.5 0.0
18:15 4.9 83.1 999.8 4.0 NNW 14.2 NNW 0.0 170.2 0.0
18:20 5.0 82.3 999.8 4.5 W 11.5 SW 0.0 169.8 0.0
18:25 4.9 82.7 999.9 0.0 NNE 0.0 NE 0.0 169.3 0.0
18:30 4.8 83.6 1000.0 1.7 NE 8.8 NE 0.0 169.1 0.0
18:35 4.6 84.3 1000.1 0.0 NNE 0.0 ENE 0.0 168.9 0.0
18:40 4.6 84.7 1000.2 0.0 NNE 0.0 E 0.0 168.7 0.0
18:45 4.5 85.7 1000.3 0.0 NNE 0.0 ENE 0.0 168.5 0.0
18:50 4.5 85.6 1000.3 0.0 NNE 0.0 SSE 0.0 168.2 0.0
18:55 4.6 86.8 1000.4 0.2 SSE 6.1 S 0.0 168.1 0.1
19:00 4.5 87.2 1000.3 0.3 WSW 6.1 WSW 0.0 167.8 0.0
19:05 4.5 87.4 1000.3 0.8 SSW 6.1 SW 0.0 167.6 0.0
19:10 4.6 87.1 1000.4 2.3 SW 11.5 SW 0.0 167.3 0.0
19:15 4.8 85.2 1000.5 1.5 S 11.5 S 0.0 166.9 0.0
19:20 4.9 83.8 1000.5 1.6 S 11.5 SSW 0.0 166.4 0.0
19:25 4.9 85.1 1000.5 2.7 E 8.8 E 0.0 165.9 0.0
19:30 4.9 85.4 1000.5 0.4 S 6.1 SSW 0.0 165.5 0.0
19:35 4.9 84.6 1000.6 3.4 SSE 8.8 SSE 0.0 165.1 0.0
19:40 5.1 82.8 1000.6 2.9 SSW 8.8 W 0.0 164.6 0.0
19:45 5.1 82.2 1000.6 2.1 WSW 6.1 WSW 0.0 164.0 0.0
19:50 5.1 82.7 1000.6 2.6 WSW 8.8 W 0.0 163.4 0.0
19:55 5.1 82.3 1000.6 1.4 WSW 6.1 WSW 0.0 162.9 0.0
20:00 5.1 83.3 1000.7 0.0 NNE 0.0 WSW 0.0 162.4 0.0
20:05 5.0 85.5 1000.8 0.0 NNE 0.0 SW 0.0 162.2 0.0
20:10 5.0 84.5 1000.9 0.0 NNE 0.0 SSE 0.0 161.8 0.0
20:15 5.0 84.4 1001.0 0.4 W 6.1 W 0.0 161.4 0.0
20:20 5.0 84.1 1001.1 0.0 NNE 0.0 WSW 0.0 161.0 0.0
20:25 5.0 84.6 1001.1 0.0 NNE 0.0 SSW 0.0 160.6 0.0
20:30 4.9 86.0 1001.2 0.0 NNE 0.0 SSW 0.0 160.4 0.0
20:35 4.9 86.6 1001.3 0.0 NNE 0.0 SSW 0.0 160.2 0.0
20:40 4.8 87.0 1001.3 0.0 NNE 0.0 S 0.0 159.9 0.0
Màxima 8.3 99.9 1001.3 12.8 SW 35.8 SW 0.0 323.6 523.2
Mínima -0.3 65.2 997.2 159.9
Total 0.0